Details for Norwegian Air Shuttle at ENBR




Go Back


Latest METAR
Local Time

ENBR 252150Z 34009KT CAVOK 13/09 Q1029 RMK WIND 1200FT 36015KT

26/05/2018, 00:21:57

Description
Results
Norwegian Air Shuttle Logo
Number of Pilots based at ENBR
0 Pilots Based here
Number of Norwegian Air Shuttle Flights Departed from ENBR
0 Flights Departed
Number of Norwegian Air Shuttle Flights Arrived at ENBR
1 Flights Arrived
Number of Norwegian Air Shuttle Schedules Departing from ENBR
50 Schedules
Number of Norwegian Air Shuttle Schedules Arriving at ENBR
52 Schedules
Number of Norwegian Air Shuttle Schedules Departing from ENBR availible today
29 Schedules Today
Number of Norwegian Air Shuttle Schedules Arriving at ENBR availible today
30 Schedules Today
Average Landing Rate at ENBR
-244 fpm
Norwegian Air Shuttle Average Landing Rate at ENBR
-243 fpm
Total Fuel Purchased at ENBR by Norwegian Air Shuttle
0.00 kgs / 0.00 lbs

Pilots Based at ENBR


Pilot ID
Pilot Name
Pilot Rank
No. of Flights
No. of Flying Hours
There are no pilots assigned to this hub!   Will you be the first?
Content